EW3163 Weather Reports


time (UTC)temp
C
wind
direction
speed
KPH
gust
KPH
rain 1hr
cm
rain 24hr
cm
rain mn
cm
humidity
%
barometer
mb
20260507203007 10 100 0.0 0.0 0.00 0.00 0.00 78 1014.3
20260507201513 10 192 0.0 0.0 0.00 0.00 0.00 78 1014.2
20260507200006 11 150 0.0 0.0 0.00 0.00 0.00 78 1014.2
20260507194505 11 189 0.0 0.0 0.00 0.00 0.00 78 1014.0
20260507193005 11 144 0.0 0.0 0.00 0.00 0.00 77 1014.0
20260507191505 11 194 0.0 0.0 0.00 0.00 0.00 77 1013.9
20260507190003 11 194 0.0 0.0 0.00 0.00 0.00 77 1013.8
20260507184600 11 133 0.0 0.0 0.00 0.00 0.00 76 1013.8
20260507183059 11 142 0.0 0.0 0.00 0.00 0.00 76 1013.9
20260507181558 12 128 0.0 0.0 0.00 0.00 0.00 76 1013.9
20260507180106 12 126 0.0 0.0 0.00 0.00 0.00 74 1013.8
20260507174630 12 141 0.0 1.6 0.00 0.00 0.00 74 1013.9
20260507173057 12 145 0.0 3.2 0.00 0.00 0.00 75 1013.8
20260507171609 12 135 0.0 0.0 0.00 0.00 0.00 75 1013.9
20260507170054 12 155 0.0 1.6 0.00 0.00 0.00 75 1014.1
20260507164555 12 124 0.0 1.6 0.00 0.00 0.00 75 1014.1
20260507163053 12 151 0.0 0.0 0.00 0.00 0.00 75 1014.2
20260507161553 11 155 0.0 0.0 0.00 0.00 0.00 76 1014.3
20260507160111 11 203 0.0 1.6 0.00 0.00 0.00 75 1014.3
20260507154549 11 139 0.0 1.6 0.00 0.00 0.00 75 1014.2
20260507153048 11 122 0.0 1.6 0.00 0.00 0.00 76 1014.4
20260507151553 11 166 0.0 1.6 0.00 0.00 0.00 74 1014.4
20260507150047 12 155 0.0 1.6 0.00 0.00 0.00 73 1014.5
20260507144546 12 132 0.0 0.0 0.00 0.00 0.00 73 1014.5
20260507143044 12 143 0.0 3.2 0.00 0.00 0.00 71 1014.5
20260507141543 12 169 0.0 1.6 0.00 0.00 0.00 71 1014.6
20260507140047 13 190 0.0 8.0 0.00 0.00 0.00 71 1014.6
20260507134543 13 157 0.0 6.4 0.00 0.00 0.00 73 1014.6
20260507133043 13 143 3.2 9.7 0.00 0.00 0.00 72 1014.4
20260507131608 13 136 0.0 9.7 0.00 0.00 0.00 71 1014.6
20260507130042 13 144 1.6 9.7 0.00 0.00 0.00 72 1014.6
20260507124549 13 141 0.0 9.7 0.00 0.00 0.00 70 1014.5
20260507123043 13 125 0.0 4.8 0.00 0.00 0.00 68 1014.5
20260507121538 13 203 0.0 9.7 0.00 0.00 0.00 69 1014.5
20260507120040 14 133 0.0 8.0 0.00 0.00 0.00 66 1014.6
20260507114534 14 143 4.8 16.1 0.00 0.00 0.00 66 1014.7
20260507113058 13 153 1.6 6.4 0.00 0.00 0.00 70 1014.8
20260507111527 12 153 0.0 8.0 0.00 0.00 0.00 72 1014.8
20260507110023 12 149 0.0 8.0 0.00 0.00 0.00 75 1014.9
20260507104520 11 141 1.6 9.7 0.00 0.00 0.00 78 1015.1
20260507103016 10 160 1.6 8.0 0.00 0.00 0.00 78 1015.2
20260507101523 10 184 3.2 9.7 0.00 0.00 0.00 77 1015.1
20260507100029 10 154 0.0 12.9 0.00 0.00 0.00 78 1015.2
20260507094513 10 156 0.0 9.7 0.00 0.00 0.00 77 1015.2
20260507093010 10 170 1.6 9.7 0.00 0.00 0.00 80 1015.3
20260507091508 10 194 0.0 6.4 0.00 0.00 0.00 81 1015.3
20260507090007 10 149 0.0 4.8 0.00 0.00 0.00 78 1015.3
20260507084507 10 149 0.0 0.0 0.00 0.00 0.00 82 1015.3
20260507083059 8 195 0.0 3.2 0.00 0.00 0.00 85 1015.4
20260507081554 7 186 0.0 6.4 0.00 0.00 0.00 87 1015.5
20260507080053 7 141 0.0 6.4 0.00 0.00 0.00 89 1015.5
20260507074551 6 194 0.0 6.4 0.00 0.00 0.00 90 1015.5
20260507073046 6 139 0.0 1.6 0.00 0.00 0.00 91 1015.5
20260507071546 6 141 0.0 0.0 0.00 0.00 0.00 92 1015.5
20260507070054 5 182 0.0 0.0 0.00 0.00 0.00 93 1015.6
20260507064545 5 162 0.0 0.0 0.00 0.00 0.00 93 1015.6
20260507063038 5 150 0.0 0.0 0.00 0.00 0.00 94 1015.6
20260507061538 4 139 0.0 0.0 0.00 0.00 0.00 94 1015.5
20260507060037 3 190 0.0 0.0 0.00 0.00 0.00 95 1015.5
20260507054538 3 176 0.0 0.0 0.00 0.00 0.00 95 1015.4
20260507053029 3 174 0.0 0.0 0.00 0.00 0.00 95 1015.4
20260507051525 2 188 0.0 0.0 0.00 0.00 0.00 95 1015.3
20260507050047 2 140 0.0 0.0 0.00 0.00 0.00 95 1015.2
20260507044524 2 165 0.0 0.0 0.00 0.00 0.00 95 1015.4
20260507043017 1 157 0.0 0.0 0.00 0.00 0.00 95 1015.4
20260507041513 1 63 0.0 0.0 0.00 0.00 0.00 95 1015.3
20260507040014 0 63 0.0 0.0 0.00 0.00 0.00 94 1015.3
20260507034511 0 63 0.0 0.0 0.00 0.00 0.00 94 1015.5
20260507033008 0 62 0.0 0.0 0.00 0.00 0.00 94 1015.5
20260507031508 0 63 0.0 0.0 0.00 0.00 0.00 94 1015.5
20260507030007 0 63 0.0 0.0 0.00 0.00 0.00 94 1015.6
20260507024506 0 62 0.0 0.0 0.00 0.00 0.00 94 1015.5
20260507023003 0 63 0.0 0.0 0.00 0.00 0.00 94 1015.5
20260507021502 0 62 0.0 0.0 0.00 0.00 0.00 94 1015.5
20260507020000 0 63 0.0 0.0 0.00 0.00 0.00 94 1015.6
20260507014601 0 63 0.0 0.0 0.00 0.00 0.00 94 1015.6
20260507013058 0 62 0.0 0.0 0.00 0.00 0.00 93 1015.7
20260507011600 0 62 0.0 0.0 0.00 0.00 0.00 93 1015.7
20260507010055 0 62 0.0 0.0 0.00 0.00 0.00 93 1015.8
20260507004555 0 63 0.0 0.0 0.00 0.00 0.00 93 1015.9
20260507003052 0 63 0.0 0.0 0.00 0.00 0.00 92 1015.9
20260507001550 0 62 0.0 0.0 0.00 0.00 0.00 92 1015.9
20260507000051 0 63 0.0 0.0 0.00 0.00 0.00 92 1015.9
20260506234604 0 63 0.0 0.0 0.00 0.00 0.00 92 1015.9
20260506233046 0 62 0.0 0.0 0.00 0.00 0.00 91 1015.9
20260506231544 0 63 0.0 0.0 0.00 0.00 0.00 91 1016.0
20260506230041 1 62 0.0 0.0 0.00 0.00 0.00 91 1016.0
20260506224545 1 62 0.0 0.0 0.00 0.00 0.00 90 1016.0
20260506223045 1 62 0.0 0.0 0.00 0.00 0.00 90 1016.0
20260506221539 1 62 0.0 0.0 0.00 0.00 0.00 89 1016.0
20260506220039 1 63 0.0 0.0 0.00 0.00 0.00 89 1016.1
20260506214542 1 63 0.0 0.0 0.00 0.00 0.00 88 1016.1
20260506213038 2 63 0.0 0.0 0.00 0.00 0.00 88 1016.2
20260506211537 2 63 0.0 0.0 0.00 0.00 0.00 87 1016.1
20260506210040 2 63 0.0 0.0 0.00 0.00 0.00 85 1016.1
20260506204548 3 63 0.0 0.0 0.00 0.00 0.00 84 1016.0